Flag Weather past 2 weeks in Panama City, Florida, U.S.A.

Now
61 °F

Clear.


Feels Like: 61 °F
Forecast: 44 / 58 °F
Wind: 15 mph from West

Location: Tyndall Air Force Base

Current Time: Nov 26, 2014 at 11:46:19 PM

Latest Report: Nov 26, 2014 at 10:58 PM


Visibility: 10 mi

Pressure: 30.23 "Hg

Humidity: 63%

Dew point: 49 °F

Location of Panama CityLocation

Historic Weather in Panama City — Graph

°F

Panama City temperature yesterday

Maximum temperature yesterday: 61 °F (at 12:02 AM)
Minimum temperature yesterday: 48 °F (at 11:58 PM)
Average temperature yesterday: 54 °F

Past Weeks' High & Low Weather Summary

 TemperatureHumidityPressure
High77 °F (Nov 23, 10:58 AM)100% (Nov 12, 3:58 AM)30.49 "Hg (Nov 12, 3:58 AM)
Low30 °F (Nov 20, 3:58 AM)24% (Nov 19, 1:58 PM)29.76 "Hg (Nov 23, 12:03 PM)
Average55 °F78%30.13 "Hg
* Reported Nov 11 9:58 PM — Nov 26 9:58 PM, Panama City, Weather by CustomWeather, © 2014

Note: Actual official high and low records may vary slightly from our data, if they occured in-between our weather recording intervals... More about our weather records

Advertising

Panama City weather history for previous 24 hours

 ConditionsComfort  
Time TempWeatherWind HumidityBarometerVisibility
9:58 PM
Nov 26
58 °FClear.10 mph66%30.22 "Hg10 mi
8:58 PM49 °FClear.7 mph77%30.23 "Hg10 mi
7:58 PM48 °FClear.No wind87%30.21 "Hg10 mi
6:58 PM52 °FClear.3 mph73%30.21 "Hg10 mi
5:58 PM55 °FClear.7 mph62%30.22 "Hg10 mi
4:58 PM55 °FClear.7 mph62%30.20 "Hg10 mi
3:58 PM60 °FClear.8 mph53%30.18 "Hg10 mi
2:58 PM61 °FSunny.10 mph52%30.19 "Hg10 mi
1:58 PM62 °FSunny.8 mph43%30.19 "Hg10 mi
12:58 PM61 °FSunny.13 mph46%30.20 "Hg10 mi
11:58 AM60 °FSunny.9 mph45%30.22 "Hg10 mi
10:58 AM57 °FSunny.8 mph51%30.24 "Hg10 mi
9:58 AM54 °FSunny.10 mph53%30.24 "Hg10 mi
8:58 AM51 °FSunny.12 mph59%30.23 "Hg10 mi
7:55 AM48 °FPassing clouds.10 mph71%30.21 "Hg10 mi
5:58 AM46 °FSunny.10 mph72%30.14 "Hg10 mi
4:58 AM47 °FPassing clouds.13 mph76%30.12 "Hg10 mi
3:58 AM49 °FPassing clouds.1 mph77%30.11 "HgN/A
2:58 AM49 °FOvercast.No wind83%N/A10 mi
1:58 AM49 °FOvercast.6 mph96%30.09 "Hg10 mi
12:58 AM48 °FPassing clouds.7 mph94%30.06 "Hg10 mi
12:01 AM48 °FPassing clouds.6 mph94%30.05 "Hg10 mi
11:58 PM
Nov 25
48 °FLight rain. Passing clouds.6 mph94%30.06 "Hg10 mi
Weather by CustomWeather, © 2014

See weather overviewHow to use our weather pages